Time,TemperatureF,DewpointF,PressureIn,WindDirection,WindDirectionDegrees,WindSpeedMPH,WindSpeedGustMPH,Humidity,HourlyPrecipIn,Conditions,Clouds,dailyrainin,SoftwareType,DateUTC
2013-02-24 00:00:00,33.3,27.5,29.83,SW,225,0.0,0.0,79,0.00,CLR,CLR,0.00,WeatherDisplay:10.37,2013-02-24 05:00:00,
2013-02-24 00:01:00,33.3,27.5,29.83,SW,225,0.0,0.0,79,0.00,CLR,,0.00,WeatherDisplay:10.37,2013-02-24 05:01:00,
2013-02-24 00:06:00,32.7,26.9,29.83,SW,225,0.0,0.0,79,0.00,CLR,,0.00,WeatherDisplay:10.37,2013-02-24 05:06:00,
2013-02-24 00:10:00,32.7,26.9,29.83,SW,225,0.0,0.0,79,0.00,CLR,,0.00,WeatherDisplay:10.37,2013-02-24 05:10:00,
2013-02-24 00:15:00,32.5,26.7,29.83,SW,225,0.0,0.0,79,0.00,CLR,,0.00,WeatherDisplay:10.37,2013-02-24 05:15:00,
2013-02-24 00:20:00,32.4,26.6,29.83,SW,225,0.0,0.0,79,0.00,CLR,,0.00,WeatherDisplay:10.37,2013-02-24 05:20:00,
2013-02-24 00:25:00,32.2,26.7,29.83,SW,225,0.0,0.0,80,0.00,CLR,,0.00,WeatherDisplay:10.37,2013-02-24 05:25:00,
2013-02-24 00:30:00,32.0,26.5,29.84,SW,225,0.0,0.0,80,0.00,CLR,,0.00,WeatherDisplay:10.37,2013-02-24 05:30:00,
2013-02-24 00:35:00,31.8,26.4,29.84,SW,225,0.0,0.0,80,0.00,CLR,,0.00,WeatherDisplay:10.37,2013-02-24 05:35:00,
2013-02-24 00:40:00,31.8,26.4,29.84,SW,225,0.0,0.0,80,0.00,CLR,,0.00,WeatherDisplay:10.37,2013-02-24 05:40:00,
2013-02-24 00:45:00,31.6,26.2,29.84,SW,225,0.0,0.0,80,0.00,CLR,,0.00,WeatherDisplay:10.37,2013-02-24 05:45:00,
2013-02-24 00:50:00,31.3,25.8,29.84,SW,225,0.0,0.0,80,0.00,CLR,,0.00,WeatherDisplay:10.37,2013-02-24 05:50:00,
2013-02-24 00:55:00,31.3,25.8,29.84,SW,225,0.0,0.0,80,0.00,CLR,,0.00,WeatherDisplay:10.37,2013-02-24 05:55:00,
2013-02-24 01:00:00,31.1,25.7,29.84,SW,225,0.0,0.0,80,0.00,CLR,,0.00,WeatherDisplay:10.37,2013-02-24 06:00:00,
2013-02-24 01:05:00,30.9,25.5,29.85,SW,225,0.0,0.0,80,0.00,CLR,,0.00,WeatherDisplay:10.37,2013-02-24 06:05:00,
2013-02-24 01:10:00,30.9,25.5,29.85,SW,225,0.0,0.0,80,0.00,CLR,,0.00,WeatherDisplay:10.37,2013-02-24 06:10:00,
2013-02-24 01:15:00,30.9,25.5,29.85,SW,225,0.0,0.0,80,0.00,CLR,,0.00,WeatherDisplay:10.37,2013-02-24 06:15:00,
2013-02-24 01:20:00,30.9,25.5,29.85,SW,225,0.0,0.0,80,0.00,CLR,,0.00,WeatherDisplay:10.37,2013-02-24 06:20:00,
2013-02-24 01:25:00,30.9,25.5,29.85,SW,225,0.0,0.0,80,0.00,CLR,,0.00,WeatherDisplay:10.37,2013-02-24 06:25:00,
2013-02-24 01:30:00,30.9,25.8,29.85,SW,225,0.0,0.0,81,0.00,CLR,,0.00,WeatherDisplay:10.37,2013-02-24 06:30:00,
2013-02-24 01:35:00,30.9,25.8,29.85,SW,225,0.0,0.0,81,0.00,CLR,,0.00,WeatherDisplay:10.37,2013-02-24 06:35:00,
2013-02-24 01:40:00,31.5,26.3,29.85,SW,225,0.0,0.0,81,0.00,CLR,,0.00,WeatherDisplay:10.37,2013-02-24 06:40:00,
2013-02-24 01:45:00,31.6,26.5,29.85,SW,225,0.0,0.0,81,0.00,CLR,,0.00,WeatherDisplay:10.37,2013-02-24 06:45:00,
2013-02-24 01:50:00,31.8,26.7,29.85,SW,225,0.0,0.0,81,0.00,CLR,,0.00,WeatherDisplay:10.37,2013-02-24 06:50:00,
2013-02-24 01:55:00,32.2,27.3,29.85,SW,225,0.0,0.0,82,0.00,CLR,,0.00,WeatherDisplay:10.37,2013-02-24 06:55:00,
2013-02-24 02:00:00,32.2,27.3,29.85,SW,225,0.0,0.0,82,0.00,CLR,,0.00,WeatherDisplay:10.37,2013-02-24 07:00:00,
2013-02-24 02:05:00,32.7,27.8,29.85,SW,225,0.0,0.0,82,0.00,CLR,,0.00,WeatherDisplay:10.37,2013-02-24 07:05:00,
2013-02-24 02:10:00,33.1,28.2,29.85,SW,225,0.0,0.0,82,0.00,CLR,,0.00,WeatherDisplay:10.37,2013-02-24 07:10:00,
2013-02-24 02:15:00,33.4,28.5,29.85,SW,225,0.0,0.0,82,0.00,CLR,,0.00,WeatherDisplay:10.37,2013-02-24 07:15:00,
2013-02-24 02:20:00,33.6,28.7,29.85,SW,225,0.0,0.0,82,0.00,CLR,,0.00,WeatherDisplay:10.37,2013-02-24 07:20:00,
2013-02-24 02:25:00,34.3,29.7,29.85,NE,45,0.0,0.0,83,0.00,CLR,,0.00,WeatherDisplay:10.37,2013-02-24 07:25:00,
2013-02-24 02:30:00,34.5,29.9,29.84,NE,45,0.0,0.0,83,0.00,CLR,,0.00,WeatherDisplay:10.37,2013-02-24 07:30:00,
2013-02-24 02:35:00,35.2,30.6,29.84,NE,45,0.0,0.0,83,0.00,CLR,,0.00,WeatherDisplay:10.37,2013-02-24 07:35:00,
2013-02-24 02:40:00,35.4,31.1,29.84,NE,45,0.0,0.0,84,0.00,CLR,,0.00,WeatherDisplay:10.37,2013-02-24 07:40:00,
2013-02-24 02:45:00,35.8,31.4,29.84,ENE,68,0.0,0.0,84,0.00,CLR,,0.00,WeatherDisplay:10.37,2013-02-24 07:45:00,
2013-02-24 02:50:00,35.8,31.4,29.84,ENE,68,0.0,0.0,84,0.00,CLR,,0.00,WeatherDisplay:10.37,2013-02-24 07:50:00,
2013-02-24 02:55:00,36.0,31.6,29.83,NE,45,0.0,0.0,84,0.00,CLR,,0.00,WeatherDisplay:10.37,2013-02-24 07:55:00,
2013-02-24 03:00:00,36.1,31.8,29.83,NE,45,0.0,0.0,84,0.00,CLR,,0.00,WeatherDisplay:10.37,2013-02-24 08:00:00,
2013-02-24 03:05:00,36.1,32.1,29.83,NE,45,0.0,0.0,85,0.00,CLR,,0.00,WeatherDisplay:10.37,2013-02-24 08:05:00,
2013-02-24 03:10:00,36.3,32.2,29.83,East,90,0.0,0.0,85,0.00,CLR,,0.00,WeatherDisplay:10.37,2013-02-24 08:10:00,
2013-02-24 03:15:00,36.3,32.2,29.82,NE,45,0.0,0.0,85,0.00,CLR,,0.00,WeatherDisplay:10.37,2013-02-24 08:15:00,
2013-02-24 03:20:00,36.3,32.2,29.82,NNE,22,0.0,0.0,85,0.00,CLR,,0.00,WeatherDisplay:10.37,2013-02-24 08:20:00,
2013-02-24 03:25:00,36.3,32.2,29.83,NE,45,1.1,1.1,85,0.00,CLR,,0.00,WeatherDisplay:10.37,2013-02-24 08:25:00,
2013-02-24 03:30:00,36.3,32.2,29.82,NE,45,0.0,0.0,85,0.00,CLR,,0.00,WeatherDisplay:10.37,2013-02-24 08:30:00,
2013-02-24 03:35:00,36.3,32.2,29.82,NE,45,0.0,0.0,85,0.00,CLR,,0.00,WeatherDisplay:10.37,2013-02-24 08:35:00,
2013-02-24 03:40:00,36.1,32.1,29.83,NE,45,0.0,0.0,85,0.00,CLR,,0.00,WeatherDisplay:10.37,2013-02-24 08:40:00,
2013-02-24 03:45:00,36.1,32.1,29.82,NE,45,0.0,0.0,85,0.00,CLR,,0.00,WeatherDisplay:10.37,2013-02-24 08:45:00,
2013-02-24 03:50:00,36.1,32.1,29.83,NE,45,0.0,0.0,85,0.00,CLR,,0.00,WeatherDisplay:10.37,2013-02-24 08:50:00,
2013-02-24 03:55:00,36.1,32.1,29.83,NE,45,0.0,0.0,85,0.00,CLR,,0.00,WeatherDisplay:10.37,2013-02-24 08:55:00,
2013-02-24 04:00:00,36.3,32.2,29.83,NNE,22,0.0,0.0,85,0.00,CLR,,0.00,WeatherDisplay:10.37,2013-02-24 09:00:00,
2013-02-24 04:05:00,36.3,32.5,29.84,North,0,0.0,0.0,86,0.00,CLR,,0.00,WeatherDisplay:10.37,2013-02-24 09:05:00,
2013-02-24 04:10:00,36.3,32.5,29.84,North,0,0.0,0.0,86,0.00,CLR,,0.00,WeatherDisplay:10.37,2013-02-24 09:10:00,
2013-02-24 04:15:00,36.5,32.7,29.84,North,0,0.0,0.0,86,0.00,CLR,,0.00,WeatherDisplay:10.37,2013-02-24 09:15:00,
2013-02-24 04:20:00,36.5,32.7,29.84,North,0,0.0,0.0,86,0.00,CLR,,0.00,WeatherDisplay:10.37,2013-02-24 09:20:00,
2013-02-24 04:25:00,36.7,32.9,29.85,NE,45,0.0,0.0,86,0.00,CLR,,0.00,WeatherDisplay:10.37,2013-02-24 09:25:00,
2013-02-24 04:30:00,36.7,32.9,29.84,NE,45,0.0,0.0,86,0.00,CLR,,0.00,WeatherDisplay:10.37,2013-02-24 09:30:00,
2013-02-24 04:35:00,36.7,32.9,29.84,NE,45,0.0,0.0,86,0.00,CLR,,0.00,WeatherDisplay:10.37,2013-02-24 09:35:00,
2013-02-24 04:40:00,36.7,32.9,29.84,NE,45,0.0,0.0,86,0.00,CLR,,0.00,WeatherDisplay:10.37,2013-02-24 09:40:00,
2013-02-24 04:45:00,36.7,32.9,29.85,NE,45,0.0,0.0,86,0.00,CLR,,0.00,WeatherDisplay:10.37,2013-02-24 09:45:00,
2013-02-24 04:50:00,36.7,32.9,29.84,NE,45,0.0,0.0,86,0.00,CLR,,0.00,WeatherDisplay:10.37,2013-02-24 09:50:00,
2013-02-24 04:55:00,36.7,32.9,29.83,ENE,68,0.0,0.0,86,0.00,CLR,,0.00,WeatherDisplay:10.37,2013-02-24 09:55:00,
2013-02-24 05:00:00,36.7,32.9,29.84,ENE,68,0.0,0.0,86,0.00,CLR,,0.00,WeatherDisplay:10.37,2013-02-24 10:00:00,
2013-02-24 05:05:00,36.7,32.9,29.84,ENE,68,0.0,0.0,86,0.00,CLR,,0.00,WeatherDisplay:10.37,2013-02-24 10:05:00,
2013-02-24 05:10:00,36.7,32.9,29.85,NE,45,0.0,0.0,86,0.00,CLR,,0.00,WeatherDisplay:10.37,2013-02-24 10:10:00,
2013-02-24 05:15:00,36.7,32.9,29.85,NE,45,0.0,0.0,86,0.00,CLR,,0.00,WeatherDisplay:10.37,2013-02-24 10:15:00,
2013-02-24 05:20:00,36.7,32.9,29.85,NE,45,0.0,0.0,86,0.00,CLR,,0.00,WeatherDisplay:10.37,2013-02-24 10:20:00,
2013-02-24 05:25:00,36.7,32.9,29.85,NE,45,0.0,0.0,86,0.00,CLR,,0.00,WeatherDisplay:10.37,2013-02-24 10:25:00,
2013-02-24 05:30:00,36.7,32.9,29.85,NE,45,0.0,0.0,86,0.00,CLR,,0.00,WeatherDisplay:10.37,2013-02-24 10:30:00,
2013-02-24 05:35:00,36.7,32.9,29.85,NE,45,0.0,0.0,86,0.00,CLR,,0.00,WeatherDisplay:10.37,2013-02-24 10:35:00,
2013-02-24 05:40:00,36.7,32.9,29.85,NE,45,0.0,0.0,86,0.00,CLR,,0.00,WeatherDisplay:10.37,2013-02-24 10:40:00,
2013-02-24 05:45:00,36.7,32.9,29.85,NE,45,0.0,0.0,86,0.00,CLR,,0.00,WeatherDisplay:10.37,2013-02-24 10:45:00,
2013-02-24 05:50:00,36.7,32.9,29.85,NE,45,0.0,0.0,86,0.00,CLR,,0.00,WeatherDisplay:10.37,2013-02-24 10:50:00,
2013-02-24 05:55:00,36.7,32.9,29.85,NE,45,0.0,0.0,86,0.00,CLR,,0.00,WeatherDisplay:10.37,2013-02-24 10:55:00,
2013-02-24 06:00:00,36.5,32.7,29.86,ENE,68,0.0,0.0,86,0.00,CLR,,0.00,WeatherDisplay:10.37,2013-02-24 11:00:00,
2013-02-24 06:05:00,36.5,32.7,29.85,ENE,68,0.0,0.0,86,0.00,CLR,,0.00,WeatherDisplay:10.37,2013-02-24 11:05:00,
2013-02-24 06:10:00,36.3,32.5,29.85,ENE,68,0.0,0.0,86,0.00,CLR,,0.00,WeatherDisplay:10.37,2013-02-24 11:10:00,
2013-02-24 06:15:00,36.3,32.5,29.85,ENE,68,0.0,0.0,86,0.00,CLR,,0.00,WeatherDisplay:10.37,2013-02-24 11:15:00,
2013-02-24 06:20:00,36.3,32.5,29.86,ENE,68,0.0,0.0,86,0.00,CLR,,0.00,WeatherDisplay:10.37,2013-02-24 11:20:00,
2013-02-24 06:25:00,36.3,32.5,29.86,ENE,68,0.0,0.0,86,0.00,CLR,,0.00,WeatherDisplay:10.37,2013-02-24 11:25:00,
2013-02-24 06:30:00,36.1,32.4,29.86,ENE,68,0.0,0.0,86,0.00,CLR,,0.00,WeatherDisplay:10.37,2013-02-24 11:30:00,
2013-02-24 06:35:00,36.0,32.2,29.86,ENE,68,0.0,0.0,86,0.00,CLR,,0.00,WeatherDisplay:10.37,2013-02-24 11:35:00,
2013-02-24 06:40:00,36.0,32.2,29.85,ENE,68,0.0,0.0,86,0.00,CLR,,0.00,WeatherDisplay:10.37,2013-02-24 11:40:00,
2013-02-24 06:45:00,35.8,32.3,29.85,ENE,68,0.0,0.0,87,0.00,CLR,,0.00,WeatherDisplay:10.37,2013-02-24 11:45:00,
2013-02-24 06:50:00,35.8,32.3,29.85,ENE,68,0.0,0.0,87,0.00,CLR,,0.00,WeatherDisplay:10.37,2013-02-24 11:50:00,
2013-02-24 06:55:00,35.4,31.9,29.86,NE,45,0.0,0.0,87,0.00,CLR,,0.00,WeatherDisplay:10.37,2013-02-24 11:55:00,
2013-02-24 07:00:00,35.4,31.9,29.86,NE,45,0.0,0.0,87,0.00,CLR,,0.00,WeatherDisplay:10.37,2013-02-24 12:00:00,
2013-02-24 07:05:00,35.2,31.8,29.86,NE,45,0.0,0.0,87,0.00,CLR,,0.00,WeatherDisplay:10.37,2013-02-24 12:05:00,
2013-02-24 07:11:00,35.2,31.8,29.87,NE,45,0.0,0.0,87,0.00,CLR,,0.00,WeatherDisplay:10.37,2013-02-24 12:11:00,
2013-02-24 07:16:00,35.1,31.6,29.87,NE,45,0.0,0.0,87,0.00,CLR,,0.00,WeatherDisplay:10.37,2013-02-24 12:16:00,
2013-02-24 07:21:00,34.9,31.4,29.87,NE,45,0.0,0.0,87,0.00,CLR,,0.00,WeatherDisplay:10.37,2013-02-24 12:21:00,
2013-02-24 07:26:00,34.9,31.4,29.87,NNW,338,0.0,0.0,87,0.00,CLR,,0.00,WeatherDisplay:10.37,2013-02-24 12:26:00,
2013-02-24 07:31:00,34.9,31.4,29.87,NW,315,0.0,0.0,87,0.00,CLR,,0.00,WeatherDisplay:10.37,2013-02-24 12:31:00,
2013-02-24 07:36:00,34.9,31.4,29.88,West,270,0.0,0.0,87,0.00,CLR,,0.00,WeatherDisplay:10.37,2013-02-24 12:36:00,
2013-02-24 07:41:00,34.9,31.4,29.88,West,270,0.0,0.0,87,0.00,CLR,,0.00,WeatherDisplay:10.37,2013-02-24 12:41:00,
2013-02-24 07:46:00,34.9,31.4,29.88,West,270,0.0,0.0,87,0.00,CLR,,0.00,WeatherDisplay:10.37,2013-02-24 12:46:00,
2013-02-24 07:51:00,34.7,31.2,29.89,West,270,0.0,0.0,87,0.00,CLR,,0.00,WeatherDisplay:10.37,2013-02-24 12:51:00,
2013-02-24 07:56:00,34.7,31.2,29.89,SW,225,0.0,0.0,87,0.00,CLR,,0.00,WeatherDisplay:10.37,2013-02-24 12:56:00,
2013-02-24 08:01:00,34.7,31.2,29.89,SW,225,0.0,0.0,87,0.00,CLR,,0.00,WeatherDisplay:10.37,2013-02-24 13:01:00,
2013-02-24 08:06:00,34.9,31.4,29.88,SSW,202,0.0,0.0,87,0.00,CLR,,0.00,WeatherDisplay:10.37,2013-02-24 13:06:00,
2013-02-24 08:11:00,35.2,31.8,29.88,South,180,0.0,0.0,87,0.00,CLR,,0.00,WeatherDisplay:10.37,2013-02-24 13:11:00,
2013-02-24 08:16:00,35.2,31.8,29.88,South,180,0.0,0.0,87,0.00,CLR,,0.00,WeatherDisplay:10.37,2013-02-24 13:16:00,
2013-02-24 08:21:00,35.2,31.8,29.88,South,180,0.0,0.0,87,0.00,CLR,,0.00,WeatherDisplay:10.37,2013-02-24 13:21:00,
2013-02-24 08:27:00,35.4,31.9,29.89,SSW,202,0.0,0.0,87,0.00,CLR,,0.00,WeatherDisplay:10.37,2013-02-24 13:27:00,
2013-02-24 08:32:00,35.4,31.9,29.89,SSW,202,0.0,0.0,87,0.00,CLR,,0.00,WeatherDisplay:10.37,2013-02-24 13:32:00,
2013-02-24 08:37:00,35.4,31.9,29.89,SSE,158,0.0,0.0,87,0.00,CLR,,0.00,WeatherDisplay:10.37,2013-02-24 13:37:00,
2013-02-24 08:43:00,35.4,31.9,29.89,SSE,158,0.0,0.0,87,0.00,CLR,,0.00,WeatherDisplay:10.37,2013-02-24 13:43:00,
2013-02-24 08:48:00,35.8,32.3,29.90,SSE,158,0.0,0.0,87,0.00,CLR,,0.00,WeatherDisplay:10.37,2013-02-24 13:48:00,
2013-02-24 08:53:00,36.0,32.5,29.90,South,180,0.0,0.0,87,0.00,CLR,,0.00,WeatherDisplay:10.37,2013-02-24 13:53:00,
2013-02-24 08:59:00,36.3,32.8,29.90,South,180,0.0,0.0,87,0.00,CLR,,0.00,WeatherDisplay:10.37,2013-02-24 13:59:00,
2013-02-24 09:04:00,36.3,32.8,29.91,South,180,0.0,0.0,87,0.00,CLR,,0.00,WeatherDisplay:10.37,2013-02-24 14:04:00,
2013-02-24 09:09:00,36.9,33.4,29.91,SSW,202,0.0,0.0,87,0.00,CLR,,0.00,WeatherDisplay:10.37,2013-02-24 14:09:00,
2013-02-24 09:14:00,37.2,34.0,29.91,South,180,0.0,0.0,88,0.00,CLR,,0.00,WeatherDisplay:10.37,2013-02-24 14:14:00,
2013-02-24 09:19:00,37.2,34.0,29.91,SE,135,0.0,0.0,88,0.00,CLR,,0.00,WeatherDisplay:10.37,2013-02-24 14:19:00,
2013-02-24 09:24:00,38.5,35.2,29.91,SE,135,0.0,0.0,88,0.00,CLR,,0.00,WeatherDisplay:10.37,2013-02-24 14:24:00,
2013-02-24 09:29:00,39.0,35.8,29.90,SE,135,0.0,0.0,88,0.00,CLR,,0.00,WeatherDisplay:10.37,2013-02-24 14:29:00,
2013-02-24 09:34:00,39.6,36.3,29.90,SSE,158,0.0,0.0,88,0.00,CLR,,0.00,WeatherDisplay:10.37,2013-02-24 14:34:00,
2013-02-24 09:39:00,40.3,37.0,29.90,SW,225,0.0,0.0,88,0.00,CLR,,0.00,WeatherDisplay:10.37,2013-02-24 14:39:00,
2013-02-24 09:44:00,40.3,37.0,29.90,SW,225,0.0,0.0,88,0.00,CLR,,0.00,WeatherDisplay:10.37,2013-02-24 14:44:00,
2013-02-24 09:49:00,40.3,37.0,29.90,SW,225,0.0,0.0,88,0.00,CLR,,0.00,WeatherDisplay:10.37,2013-02-24 14:49:00,
2013-02-24 09:54:00,40.3,37.0,29.90,SW,225,0.0,0.0,88,0.00,CLR,,0.00,WeatherDisplay:10.37,2013-02-24 14:54:00,
2013-02-24 09:59:00,40.3,37.0,29.90,SW,225,0.0,0.0,88,0.00,CLR,,0.00,WeatherDisplay:10.37,2013-02-24 14:59:00,
2013-02-24 10:04:00,40.3,37.0,29.90,SW,226,0.0,0.0,88,0.00,CLR,,0.00,WeatherDisplay:10.37,2013-02-24 15:04:00,
2013-02-24 10:09:00,40.3,37.0,29.90,SW,226,0.0,0.0,88,0.00,CLR,,0.00,WeatherDisplay:10.37,2013-02-24 15:09:00,
2013-02-24 10:14:00,40.3,37.0,29.90,SW,226,0.0,0.0,88,0.00,CLR,,0.00,WeatherDisplay:10.37,2013-02-24 15:14:00,
2013-02-24 10:19:00,40.3,37.0,29.90,SW,226,0.0,0.0,88,0.00,CLR,,0.00,WeatherDisplay:10.37,2013-02-24 15:19:00,
2013-02-24 10:24:00,40.3,37.0,29.90,SW,226,0.0,0.0,88,0.00,CLR,,0.00,WeatherDisplay:10.37,2013-02-24 15:24:00,
2013-02-24 10:29:00,40.3,37.0,29.90,SW,226,0.0,0.0,88,0.00,CLR,,0.00,WeatherDisplay:10.37,2013-02-24 15:29:00,
2013-02-24 10:34:00,40.3,37.0,29.90,SW,226,0.0,0.0,88,0.00,CLR,,0.00,WeatherDisplay:10.37,2013-02-24 15:34:00,
2013-02-24 10:39:00,40.3,37.0,29.90,SW,226,0.0,0.0,88,0.00,CLR,,0.00,WeatherDisplay:10.37,2013-02-24 15:39:00,
2013-02-24 10:44:00,40.3,37.0,29.90,SW,226,0.0,0.0,88,0.00,CLR,,0.00,WeatherDisplay:10.37,2013-02-24 15:44:00,
2013-02-24 10:49:00,40.3,37.0,29.90,SW,226,0.0,0.0,88,0.00,CLR,,0.00,WeatherDisplay:10.37,2013-02-24 15:49:00,
2013-02-24 10:54:00,40.3,37.0,29.90,SW,226,0.0,0.0,88,0.00,CLR,,0.00,WeatherDisplay:10.37,2013-02-24 15:54:00,
2013-02-24 11:00:00,40.3,37.0,29.90,SW,226,0.0,0.0,88,0.00,CLR,CLR,0.00,WeatherDisplay:10.37,2013-02-24 16:00:00,
2013-02-24 11:05:00,40.3,37.0,29.90,SW,226,0.0,0.0,88,0.00,CLR,CLR,0.00,WeatherDisplay:10.37,2013-02-24 16:05:00,
2013-02-24 11:10:00,40.3,37.0,29.90,SW,226,0.0,0.0,88,0.00,CLR,CLR,0.00,WeatherDisplay:10.37,2013-02-24 16:10:00,
2013-02-24 11:15:00,40.3,37.0,29.90,SW,226,0.0,0.0,88,0.00,CLR,CLR,0.00,WeatherDisplay:10.37,2013-02-24 16:15:00,
2013-02-24 11:20:00,40.3,37.0,29.90,SW,226,0.0,0.0,88,0.00,CLR,,0.00,WeatherDisplay:10.37,2013-02-24 16:20:00,
2013-02-24 11:25:00,40.3,37.0,29.90,SW,226,0.0,0.0,88,0.00,CLR,CLR,0.00,WeatherDisplay:10.37,2013-02-24 16:25:00,
2013-02-24 11:30:00,40.3,37.0,29.90,SW,226,0.0,0.0,88,0.00,CLR,,0.00,WeatherDisplay:10.37,2013-02-24 16:30:00,
2013-02-24 11:35:00,40.3,37.0,29.90,SW,226,0.0,0.0,88,0.00,CLR,,0.00,WeatherDisplay:10.37,2013-02-24 16:35:00,
2013-02-24 11:40:00,40.3,37.0,29.90,SW,226,0.0,0.0,88,0.00,CLR,,0.00,WeatherDisplay:10.37,2013-02-24 16:40:00,
2013-02-24 11:45:00,40.3,37.0,29.90,SW,226,0.0,0.0,88,0.00,CLR,CLR,0.00,WeatherDisplay:10.37,2013-02-24 16:45:00,
2013-02-24 11:50:00,40.3,37.0,29.90,SW,226,0.0,0.0,88,0.00,CLR,CLR,0.00,WeatherDisplay:10.37,2013-02-24 16:50:00,
2013-02-24 11:55:00,40.3,37.0,29.90,SW,226,0.0,0.0,88,0.00,CLR,CLR,0.00,WeatherDisplay:10.37,2013-02-24 16:55:00,
2013-02-24 12:00:00,40.3,37.0,29.89,SW,226,0.0,0.0,88,0.00,CLR,CLR,0.00,WeatherDisplay:10.37,2013-02-24 17:00:00,
2013-02-24 12:05:00,40.3,37.0,29.89,SW,226,0.0,0.0,88,0.00,CLR,CLR,0.00,WeatherDisplay:10.37,2013-02-24 17:05:00,
2013-02-24 12:10:00,40.3,37.0,29.89,SW,226,0.0,0.0,88,0.00,CLR,CLR,0.00,WeatherDisplay:10.37,2013-02-24 17:10:00,
2013-02-24 12:15:00,40.3,37.0,29.90,SW,226,0.0,0.0,88,0.00,CLR,CLR,0.00,WeatherDisplay:10.37,2013-02-24 17:15:00,
2013-02-24 12:20:00,40.3,37.0,29.89,SW,226,0.0,0.0,88,0.00,CLR,CLR,0.00,WeatherDisplay:10.37,2013-02-24 17:20:00,
2013-02-24 12:25:00,40.3,37.0,29.89,SW,226,0.0,0.0,88,0.00,CLR,CLR,0.00,WeatherDisplay:10.37,2013-02-24 17:25:00,
2013-02-24 12:30:00,40.3,37.0,29.89,SW,226,0.0,0.0,88,0.00,CLR,CLR,0.00,WeatherDisplay:10.37,2013-02-24 17:30:00,
2013-02-24 12:35:00,44.9,41.5,29.90,WNW,302,9.0,9.0,88,0.00,CLR,CLR,0.00,WeatherDisplay:10.37,2013-02-24 17:35:00,
2013-02-24 12:40:00,48.4,26.9,29.90,NNW,336,9.0,9.0,43,0.00,CLR,CLR,0.00,WeatherDisplay:10.37,2013-02-24 17:40:00,
2013-02-24 12:45:00,48.4,26.9,29.90,NNW,338,9.2,9.4,43,0.00,CLR,,0.00,WeatherDisplay:10.37,2013-02-24 17:45:00,
2013-02-24 12:50:00,48.4,26.9,29.89,NNW,338,9.0,9.0,43,0.00,CLR,CLR,0.00,WeatherDisplay:10.37,2013-02-24 17:50:00,
2013-02-24 12:55:00,48.4,26.9,29.89,NNW,339,9.0,9.0,43,0.00,CLR,CLR,0.00,WeatherDisplay:10.37,2013-02-24 17:55:00,
2013-02-24 13:00:00,48.4,26.9,29.89,NNW,339,9.0,9.0,43,0.00,CLR,CLR,0.00,WeatherDisplay:10.37,2013-02-24 18:00:00,
2013-02-24 13:05:00,48.4,26.9,29.89,NNW,339,9.0,9.0,43,0.00,CLR,CLR,0.00,WeatherDisplay:10.37,2013-02-24 18:05:00,
2013-02-24 13:10:00,48.4,26.9,29.89,NNW,339,9.0,9.0,43,0.00,CLR,CLR,0.00,WeatherDisplay:10.37,2013-02-24 18:10:00,
2013-02-24 13:15:00,48.4,26.9,29.88,NNW,339,9.0,9.0,43,0.00,CLR,CLR,0.00,WeatherDisplay:10.37,2013-02-24 18:15:00,
2013-02-24 13:20:00,49.8,27.6,29.89,NW,304,5.0,9.0,42,0.00,CLR,CLR,0.00,WeatherDisplay:10.37,2013-02-24 18:20:00,
2013-02-24 13:25:00,49.6,26.9,29.88,WNW,292,11.5,11.5,41,0.00,CLR,,0.00,WeatherDisplay:10.37,2013-02-24 18:25:00,
2013-02-24 13:30:00,49.6,26.9,29.89,SW,225,11.5,11.5,41,0.00,CLR,,0.00,WeatherDisplay:10.37,2013-02-24 18:30:00,
2013-02-24 13:35:00,49.8,27.6,29.88,SW,225,8.1,8.1,42,0.00,CLR,,0.00,WeatherDisplay:10.37,2013-02-24 18:35:00,
2013-02-24 13:40:00,49.8,27.0,29.89,West,270,2.3,2.7,41,0.00,CLR,,0.00,WeatherDisplay:10.37,2013-02-24 18:40:00,
2013-02-24 13:45:00,49.8,27.0,29.89,WSW,248,1.1,1.1,41,0.00,CLR,,0.00,WeatherDisplay:10.37,2013-02-24 18:45:00,
2013-02-24 13:50:00,49.8,27.0,29.89,WSW,248,1.1,1.1,41,0.00,CLR,,0.00,WeatherDisplay:10.37,2013-02-24 18:50:00,
2013-02-24 13:55:00,49.8,27.0,29.89,WNW,292,5.8,5.8,41,0.00,CLR,,0.00,WeatherDisplay:10.37,2013-02-24 18:55:00,
2013-02-24 14:00:00,49.8,27.0,29.88,WNW,292,5.8,6.3,41,0.00,CLR,,0.00,WeatherDisplay:10.37,2013-02-24 19:00:00,
2013-02-24 14:05:00,49.8,27.0,29.88,WNW,292,5.8,6.3,41,0.00,CLR,,0.00,WeatherDisplay:10.37,2013-02-24 19:05:00,
2013-02-24 14:10:00,49.8,26.4,29.88,North,0,6.9,7.2,40,0.00,CLR,,0.00,WeatherDisplay:10.37,2013-02-24 19:10:00,
2013-02-24 14:15:00,49.8,27.0,29.88,SSW,202,10.4,10.4,41,0.00,CLR,,0.00,WeatherDisplay:10.37,2013-02-24 19:15:00,
2013-02-24 14:20:00,49.8,27.0,29.88,WNW,287,6.0,8.0,41,0.00,CLR,CLR,0.00,WeatherDisplay:10.37,2013-02-24 19:20:00,
2013-02-24 14:25:00,49.8,26.4,29.88,West,270,2.3,2.3,40,0.00,CLR,,0.00,WeatherDisplay:10.37,2013-02-24 19:25:00,
2013-02-24 14:30:00,49.8,27.0,29.88,WNW,302,6.0,9.0,41,0.00,CLR,CLR,0.00,WeatherDisplay:10.37,2013-02-24 19:30:00,
2013-02-24 14:35:00,49.8,27.0,29.88,NW,312,8.0,11.0,41,0.00,CLR,CLR,0.00,WeatherDisplay:10.37,2013-02-24 19:35:00,
2013-02-24 14:40:00,50.2,27.4,29.88,WNW,299,6.0,11.0,41,0.00,CLR,CLR,0.00,WeatherDisplay:10.37,2013-02-24 19:40:00,
2013-02-24 14:45:00,50.2,27.4,29.88,WNW,285,5.0,7.0,41,0.00,CLR,CLR,0.00,WeatherDisplay:10.37,2013-02-24 19:45:00,
2013-02-24 14:50:00,50.4,27.5,29.88,NW,325,3.0,7.0,41,0.00,CLR,CLR,0.00,WeatherDisplay:10.37,2013-02-24 19:50:00,
2013-02-24 14:55:00,50.4,27.5,29.88,North,2,1.0,4.0,41,0.00,CLR,CLR,0.00,WeatherDisplay:10.37,2013-02-24 19:55:00,
2013-02-24 15:00:00,50.4,27.5,29.89,NNE,22,1.0,1.0,41,0.00,CLR,CLR,0.00,WeatherDisplay:10.37,2013-02-24 20:00:00,
2013-02-24 15:05:00,50.7,27.2,29.89,NNE,22,1.1,1.3,40,0.00,CLR,,0.00,WeatherDisplay:10.37,2013-02-24 20:05:00,
2013-02-24 15:10:00,50.7,27.2,29.89,WNW,292,2.3,2.3,40,0.00,CLR,,0.00,WeatherDisplay:10.37,2013-02-24 20:10:00,
2013-02-24 15:15:00,50.9,27.4,29.89,West,270,0.0,0.0,40,0.00,CLR,,0.00,WeatherDisplay:10.37,2013-02-24 20:15:00,
2013-02-24 15:20:00,50.9,27.4,29.89,NW,315,6.3,6.3,40,0.00,CLR,,0.00,WeatherDisplay:10.37,2013-02-24 20:20:00,
2013-02-24 15:25:00,51.6,28.1,29.89,WNW,292,0.0,0.0,40,0.00,CLR,,0.00,WeatherDisplay:10.37,2013-02-24 20:25:00,
2013-02-24 15:30:00,51.6,27.4,29.89,WNW,297,1.0,8.0,39,0.00,CLR,CLR,0.00,WeatherDisplay:10.37,2013-02-24 20:30:00,
2013-02-24 15:35:00,51.6,27.4,29.89,NNW,338,5.8,5.8,39,0.00,CLR,,0.00,WeatherDisplay:10.37,2013-02-24 20:35:00,
2013-02-24 15:40:00,51.6,27.4,29.90,NW,315,0.0,0.0,39,0.00,CLR,,0.00,WeatherDisplay:10.37,2013-02-24 20:40:00,
2013-02-24 15:45:00,51.6,27.4,29.90,NW,315,8.1,8.1,39,0.00,CLR,,0.00,WeatherDisplay:10.37,2013-02-24 20:45:00,
2013-02-24 15:51:00,51.6,27.4,29.90,NNE,22,5.8,5.8,39,0.00,CLR,,0.00,WeatherDisplay:10.37,2013-02-24 20:51:00,
2013-02-24 15:56:00,51.6,27.4,29.90,North,0,5.8,5.8,39,0.00,CLR,,0.00,WeatherDisplay:10.37,2013-02-24 20:56:00,
2013-02-24 16:01:00,51.4,26.6,29.90,West,270,0.0,0.0,38,0.00,CLR,,0.00,WeatherDisplay:10.37,2013-02-24 21:01:00,
2013-02-24 16:06:00,51.4,26.6,29.90,NNW,338,4.9,4.9,38,0.00,CLR,,0.00,WeatherDisplay:10.37,2013-02-24 21:06:00,
2013-02-24 16:11:00,51.4,27.3,29.90,NW,315,5.8,5.8,39,0.00,CLR,,0.00,WeatherDisplay:10.37,2013-02-24 21:11:00,
2013-02-24 16:16:00,51.1,25.7,29.91,WNW,292,8.1,8.1,37,0.00,CLR,,0.00,WeatherDisplay:10.37,2013-02-24 21:16:00,
2013-02-24 16:21:00,50.7,26.0,29.91,NNW,338,6.9,6.9,38,0.00,CLR,,0.00,WeatherDisplay:10.37,2013-02-24 21:21:00,
2013-02-24 16:26:00,50.4,25.7,29.91,WNW,292,10.4,10.4,38,0.00,CLR,,0.00,WeatherDisplay:10.37,2013-02-24 21:26:00,
2013-02-24 16:31:00,49.8,25.2,29.92,West,270,7.2,7.2,38,0.00,CLR,,0.00,WeatherDisplay:10.37,2013-02-24 21:31:00,
2013-02-24 16:36:00,49.5,25.5,29.92,West,270,6.9,7.1,39,0.00,CLR,,0.00,WeatherDisplay:10.37,2013-02-24 21:36:00,
2013-02-24 16:41:00,49.3,25.3,29.92,WNW,292,3.5,3.9,39,0.00,CLR,,0.00,WeatherDisplay:10.37,2013-02-24 21:41:00,
2013-02-24 16:46:00,49.3,25.3,29.92,WNW,292,1.1,1.1,39,0.00,CLR,,0.00,WeatherDisplay:10.37,2013-02-24 21:46:00,
2013-02-24 16:51:00,48.7,24.9,29.92,WNW,292,1.1,1.1,39,0.00,CLR,,0.00,WeatherDisplay:10.37,2013-02-24 21:51:00,
2013-02-24 16:56:00,48.4,24.5,29.92,WNW,292,1.1,1.1,39,0.00,CLR,,0.00,WeatherDisplay:10.37,2013-02-24 21:56:00,
2013-02-24 17:01:00,48.0,24.2,29.92,North,0,4.6,4.8,39,0.00,CLR,,0.00,WeatherDisplay:10.37,2013-02-24 22:01:00,
2013-02-24 17:06:00,48.0,24.2,29.93,North,0,8.1,8.1,39,0.00,CLR,,0.00,WeatherDisplay:10.37,2013-02-24 22:06:00,
2013-02-24 17:11:00,47.8,24.7,29.93,North,0,4.6,4.6,40,0.00,CLR,,0.00,WeatherDisplay:10.37,2013-02-24 22:11:00,
2013-02-24 17:16:00,47.3,24.8,29.93,North,0,6.9,6.9,41,0.00,CLR,,0.00,WeatherDisplay:10.37,2013-02-24 22:16:00,
2013-02-24 17:21:00,47.1,24.6,29.93,NNE,22,4.6,5.1,41,0.00,CLR,,0.00,WeatherDisplay:10.37,2013-02-24 22:21:00,
2013-02-24 17:26:00,46.9,24.4,29.94,North,0,9.2,9.2,41,0.00,CLR,,0.00,WeatherDisplay:10.37,2013-02-24 22:26:00,
2013-02-24 17:31:00,46.6,24.7,29.94,South,181,59.8,59.8,42,0.00,,,0.00,WeatherDisplay:10.37,2013-02-24 22:31:00,
2013-02-24 17:36:00,46.6,24.7,29.94,South,181,59.8,59.8,42,0.00,,,0.00,WeatherDisplay:10.37,2013-02-24 22:36:00,
2013-02-24 17:41:00,46.6,24.7,29.95,NNE,22,59.8,59.8,42,0.00,,,0.00,WeatherDisplay:10.37,2013-02-24 22:41:00,
2013-02-24 17:46:00,45.0,23.2,29.95,NNE,22,4.6,4.6,42,0.00,CLR,,0.00,WeatherDisplay:10.37,2013-02-24 22:46:00,
2013-02-24 17:51:00,44.4,22.7,29.95,NNE,22,4.6,4.6,42,0.00,CLR,,0.00,WeatherDisplay:10.37,2013-02-24 22:51:00,
2013-02-24 17:56:00,44.4,22.7,29.96,NNE,22,4.6,4.6,42,0.00,CLR,,0.00,WeatherDisplay:10.37,2013-02-24 22:56:00,
2013-02-24 18:01:00,44.4,23.8,29.96,NNE,22,4.6,4.6,44,0.00,CLR,,0.00,WeatherDisplay:10.37,2013-02-24 23:01:00,
2013-02-24 18:06:00,44.4,23.8,29.96,North,0,3.5,3.5,44,0.00,CLR,,0.00,WeatherDisplay:10.37,2013-02-24 23:06:00,
2013-02-24 18:11:00,44.4,23.8,29.96,North,0,3.5,3.5,44,0.00,CLR,,0.00,WeatherDisplay:10.37,2013-02-24 23:11:00,
2013-02-24 18:16:00,42.4,22.6,29.96,North,0,3.5,3.5,45,0.00,CLR,,0.00,WeatherDisplay:10.37,2013-02-24 23:16:00,
2013-02-24 18:21:00,42.1,22.2,29.97,NW,315,3.5,3.5,45,0.00,CLR,,0.00,WeatherDisplay:10.37,2013-02-24 23:21:00,
2013-02-24 18:26:00,41.9,22.1,29.98,North,0,5.8,6.3,45,0.00,CLR,,0.00,WeatherDisplay:10.37,2013-02-24 23:26:00,
2013-02-24 18:31:00,41.5,22.3,29.98,North,0,3.5,3.6,46,0.00,CLR,,0.00,WeatherDisplay:10.37,2013-02-24 23:31:00,
2013-02-24 18:36:00,41.0,21.8,29.98,North,0,8.1,8.1,46,0.00,CLR,,0.00,WeatherDisplay:10.37,2013-02-24 23:36:00,
2013-02-24 18:41:00,40.8,22.1,29.99,NNE,22,3.5,4.8,47,0.00,CLR,,0.00,WeatherDisplay:10.37,2013-02-24 23:41:00,
2013-02-24 18:46:00,39.7,21.6,29.99,NNE,22,4.6,4.6,48,0.00,CLR,,0.00,WeatherDisplay:10.37,2013-02-24 23:46:00,
2013-02-24 18:51:00,38.8,21.3,30.00,NNE,22,6.9,6.9,49,0.00,CLR,,0.00,WeatherDisplay:10.37,2013-02-24 23:51:00,
2013-02-24 18:56:00,38.3,21.3,30.01,NNE,22,3.5,3.5,50,0.00,CLR,,0.00,WeatherDisplay:10.37,2013-02-24 23:56:00,
2013-02-24 19:01:00,37.9,21.4,30.01,NE,45,4.6,4.6,51,0.00,CLR,,0.00,WeatherDisplay:10.37,2013-02-25 00:01:00,
2013-02-24 19:06:00,37.2,21.2,30.02,NE,45,3.4,3.4,52,0.00,CLR,,0.00,WeatherDisplay:10.37,2013-02-25 00:06:00,
2013-02-24 19:11:00,36.9,20.9,30.03,NE,45,6.9,6.9,52,0.00,CLR,,0.00,WeatherDisplay:10.37,2013-02-25 00:11:00,
2013-02-24 19:16:00,36.7,21.1,30.03,NE,45,9.2,9.2,53,0.00,CLR,,0.00,WeatherDisplay:10.37,2013-02-25 00:16:00,
2013-02-24 19:21:00,36.3,21.2,30.04,NE,45,9.2,9.2,54,0.00,CLR,,0.00,WeatherDisplay:10.37,2013-02-25 00:21:00,
2013-02-24 19:26:00,36.0,20.9,30.03,NE,45,9.2,9.2,54,0.00,CLR,,0.00,WeatherDisplay:10.37,2013-02-25 00:26:00,
2013-02-24 19:31:00,35.8,20.7,30.04,NE,45,6.0,6.0,54,0.00,CLR,,0.00,WeatherDisplay:10.37,2013-02-25 00:31:00,
2013-02-24 19:36:00,35.4,20.4,30.04,NE,45,0.0,0.4,54,0.00,CLR,,0.00,WeatherDisplay:10.37,2013-02-25 00:36:00,
2013-02-24 19:41:00,35.4,20.8,30.05,ENE,68,6.9,6.9,55,0.00,CLR,,0.00,WeatherDisplay:10.37,2013-02-25 00:41:00,
2013-02-24 19:46:00,35.4,20.8,30.04,NNE,22,6.9,6.9,55,0.00,CLR,,0.00,WeatherDisplay:10.37,2013-02-25 00:46:00,
2013-02-24 19:51:00,35.4,20.8,30.04,NNE,22,6.9,7.1,55,0.00,CLR,,0.00,WeatherDisplay:10.37,2013-02-25 00:51:00,
2013-02-24 19:56:00,35.8,21.2,30.05,NNE,22,8.1,8.5,55,0.00,CLR,,0.00,WeatherDisplay:10.37,2013-02-25 00:56:00,
2013-02-24 20:12:00,35.8,21.2,30.06,North,0,11.5,11.5,55,0.00,CLR,,0.00,WeatherDisplay:10.37,2013-02-25 01:12:00,
2013-02-24 20:17:00,35.6,21.0,30.06,NNE,22,6.9,6.9,55,0.00,CLR,,0.00,WeatherDisplay:10.37,2013-02-25 01:17:00,
2013-02-24 20:22:00,35.4,20.8,30.07,North,0,5.8,5.8,55,0.00,CLR,,0.00,WeatherDisplay:10.37,2013-02-25 01:22:00,
2013-02-24 20:27:00,35.2,20.7,30.07,North,0,8.1,8.1,55,0.00,CLR,,0.00,WeatherDisplay:10.37,2013-02-25 01:27:00,
2013-02-24 20:32:00,34.9,20.8,30.07,North,0,8.1,8.1,56,0.00,CLR,,0.00,WeatherDisplay:10.37,2013-02-25 01:32:00,
2013-02-24 20:37:00,34.7,20.2,30.07,North,0,8.1,8.1,55,0.00,CLR,,0.00,WeatherDisplay:10.37,2013-02-25 01:37:00,
2013-02-24 20:42:00,34.5,20.4,30.07,North,0,4.5,4.5,56,0.00,CLR,,0.00,WeatherDisplay:10.37,2013-02-25 01:42:00,
2013-02-24 20:47:00,34.3,20.3,30.07,NNW,338,4.0,4.0,56,0.00,CLR,,0.00,WeatherDisplay:10.37,2013-02-25 01:47:00,
2013-02-24 20:52:00,34.3,20.3,30.07,NNE,22,5.8,5.8,56,0.00,CLR,,0.00,WeatherDisplay:10.37,2013-02-25 01:52:00,
2013-02-24 20:57:00,34.0,19.9,30.08,North,0,4.6,4.6,56,0.00,CLR,,0.00,WeatherDisplay:10.37,2013-02-25 01:57:00,
2013-02-24 21:02:00,33.6,20.0,30.08,North,0,4.6,4.6,57,0.00,CLR,,0.00,WeatherDisplay:10.37,2013-02-25 02:02:00,
2013-02-24 21:07:00,33.6,20.0,30.07,NNW,338,3.5,4.0,57,0.00,CLR,,0.00,WeatherDisplay:10.37,2013-02-25 02:07:00,
2013-02-24 21:12:00,33.6,20.0,30.08,North,0,6.9,7.4,57,0.00,CLR,,0.00,WeatherDisplay:10.37,2013-02-25 02:12:00,
2013-02-24 21:17:00,33.6,20.0,30.08,NNE,22,5.8,5.8,57,0.00,CLR,,0.00,WeatherDisplay:10.37,2013-02-25 02:17:00,
2013-02-24 21:22:00,33.6,20.4,30.09,NE,45,2.3,2.3,58,0.00,CLR,,0.00,WeatherDisplay:10.37,2013-02-25 02:22:00,
2013-02-24 21:27:00,33.4,20.2,30.09,ENE,68,3.5,3.5,58,0.00,CLR,,0.00,WeatherDisplay:10.37,2013-02-25 02:27:00,
2013-02-24 21:32:00,33.3,20.1,30.09,ENE,68,1.6,1.6,58,0.00,CLR,,0.00,WeatherDisplay:10.37,2013-02-25 02:32:00,
2013-02-24 21:37:00,33.1,19.9,30.09,ENE,68,1.1,1.1,58,0.00,CLR,,0.00,WeatherDisplay:10.37,2013-02-25 02:37:00,
2013-02-24 21:42:00,32.9,19.7,30.09,ENE,68,0.0,0.0,58,0.00,CLR,,0.00,WeatherDisplay:10.37,2013-02-25 02:42:00,
2013-02-24 21:48:00,32.7,19.6,30.09,ENE,68,2.5,2.5,58,0.00,CLR,,0.00,WeatherDisplay:10.37,2013-02-25 02:48:00,
2013-02-24 21:53:00,32.7,19.6,30.10,North,0,3.5,3.5,58,0.00,CLR,,0.00,WeatherDisplay:10.37,2013-02-25 02:53:00,
2013-02-24 21:58:00,32.7,20.0,30.10,North,0,4.6,4.6,59,0.00,CLR,,0.00,WeatherDisplay:10.37,2013-02-25 02:58:00,
2013-02-24 22:03:00,32.7,20.0,30.10,NNE,22,3.5,4.2,59,0.00,CLR,,0.00,WeatherDisplay:10.37,2013-02-25 03:03:00,
2013-02-24 22:08:00,32.9,20.1,30.10,NNE,22,5.8,6.2,59,0.00,CLR,,0.00,WeatherDisplay:10.37,2013-02-25 03:08:00,
2013-02-24 22:13:00,32.9,20.1,30.10,North,0,3.5,3.5,59,0.00,CLR,,0.00,WeatherDisplay:10.37,2013-02-25 03:13:00,
2013-02-24 22:18:00,32.9,20.1,30.10,NNE,22,4.6,4.6,59,0.00,CLR,,0.00,WeatherDisplay:10.37,2013-02-25 03:18:00,
2013-02-24 22:23:00,32.9,20.1,30.11,NNE,22,5.8,5.8,59,0.00,CLR,,0.00,WeatherDisplay:10.37,2013-02-25 03:23:00,
2013-02-24 22:28:00,32.7,20.4,30.11,North,0,9.2,9.2,60,0.00,CLR,,0.00,WeatherDisplay:10.37,2013-02-25 03:28:00,
2013-02-24 22:33:00,32.7,20.4,30.10,NW,315,5.8,5.8,60,0.00,CLR,,0.00,WeatherDisplay:10.37,2013-02-25 03:33:00,
2013-02-24 22:38:00,32.7,20.4,30.11,NE,45,4.9,4.9,60,0.00,CLR,,0.00,WeatherDisplay:10.37,2013-02-25 03:38:00,
2013-02-24 22:43:00,32.5,20.2,30.11,North,0,4.9,4.9,60,0.00,CLR,,0.00,WeatherDisplay:10.37,2013-02-25 03:43:00,
2013-02-24 22:48:00,32.4,20.0,30.11,North,0,4.6,4.6,60,0.00,CLR,,0.00,WeatherDisplay:10.37,2013-02-25 03:48:00,
2013-02-24 22:53:00,32.4,20.0,30.11,NNE,22,4.6,4.6,60,0.00,CLR,,0.00,WeatherDisplay:10.37,2013-02-25 03:53:00,
2013-02-24 22:58:00,32.2,19.8,30.11,NNE,22,3.8,3.8,60,0.00,CLR,,0.00,WeatherDisplay:10.37,2013-02-25 03:58:00,
2013-02-24 23:03:00,32.2,19.8,30.11,North,0,6.9,6.9,60,0.00,CLR,,0.00,WeatherDisplay:10.37,2013-02-25 04:03:00,
2013-02-24 23:08:00,31.8,19.5,30.11,North,0,4.6,5.1,60,0.00,CLR,,0.00,WeatherDisplay:10.37,2013-02-25 04:08:00,
2013-02-24 23:13:00,31.8,19.5,30.11,NNE,22,6.9,6.9,60,0.00,CLR,,0.00,WeatherDisplay:10.37,2013-02-25 04:13:00,
2013-02-24 23:18:00,31.6,19.3,30.12,NNE,22,4.6,4.6,60,0.00,CLR,,0.00,WeatherDisplay:10.37,2013-02-25 04:18:00,
2013-02-24 23:23:00,31.3,19.0,30.12,NNE,22,7.2,7.2,60,0.00,CLR,,0.00,WeatherDisplay:10.37,2013-02-25 04:23:00,
2013-02-24 23:28:00,31.3,19.0,30.11,NNE,22,3.5,3.5,60,0.00,CLR,,0.00,WeatherDisplay:10.37,2013-02-25 04:28:00,
2013-02-24 23:33:00,31.1,18.8,30.11,NNE,22,6.9,6.9,60,0.00,CLR,,0.00,WeatherDisplay:10.37,2013-02-25 04:33:00,
2013-02-24 23:38:00,30.7,18.1,30.11,NNE,22,10.4,10.4,59,0.00,CLR,,0.00,WeatherDisplay:10.37,2013-02-25 04:38:00,
2013-02-24 23:43:00,30.7,18.1,30.12,North,0,7.4,7.4,59,0.00,CLR,,0.00,WeatherDisplay:10.37,2013-02-25 04:43:00,
2013-02-24 23:49:00,30.6,17.5,30.12,NNE,22,11.5,11.5,58,0.00,CLR,,0.00,WeatherDisplay:10.37,2013-02-25 04:49:00,
2013-02-24 23:54:00,30.4,17.4,30.12,NNE,22,9.8,9.8,58,0.00,CLR,,0.00,WeatherDisplay:10.37,2013-02-25 04:54:00,
2013-02-24 23:59:00,30.4,17.4,30.12,North,0,4.6,4.9,58,0.00,CLR,,0.00,WeatherDisplay:10.37,2013-02-25 04:59:00,